This demonstration page uses our WeatherBlox Daily Observations layout. Learn more.

Left ArrowRight Arrow

34.16533, -84.80231

Hourly Observations for April 21, 2016

Temp ( °F °C ) Dew Point ( °F °C ) Humidity (%) Winds ( mph kmh ) Pressure ( in mb ) Visibility ( mi km ) Precip ( " mm )
12:53 am 00:53 Clear 66 18.9 47 8.3 50 50 SSE 6 9 30.06 1018 10 16 0.00 0.00
1:53 am 01:53 Clear 64 17.8 47 8.3 54 54 SSE 7 11 30.06 1018 10 16 0.00 0.00
2:53 am 02:53 Clear 63 17.2 48 8.9 58 58 SSE 8 13 30.05 1018 10 16 0.00 0.00
3:53 am 03:53 Clear 63 17.2 49 9.4 60 60 SSE 10 17 30.04 1017 10 16 0.00 0.00
4:53 am 04:53 Clear 61 16.1 49 9.4 65 65 SSE 6 9 30.04 1017 10 16 0.00 0.00
5:53 am 05:53 Clear 55 12.8 49 9.4 80 80 Calm 30.05 1018 10 16 0.00 0.00
6:53 am 06:53 Clear 52 11.1 49 9.4 89 89 Calm 30.07 1018 9 14 0.00 0.00
7:53 am 07:53 Sunny 55 12.8 50 10 83 83 NNE 5 7 30.08 1019 10 16 0.00 0.00
8:53 am 08:53 Sunny 60 15.6 52 11.1 75 75 E 5 7 30.09 1019 10 16 0.00 0.00
9:53 am 09:53 Mostly Sunny 65 18.3 54 12.2 68 68 VRB 6 9 30.08 1019 10 16 0.00 0.00
10:53 am 10:53 Mostly Cloudy 69 20.6 55 12.8 61 61 E 7 11 30.07 1018 10 16 0.00 0.00
11:53 am 11:53 Mostly Sunny 74 23.3 55 12.8 52 52 SE 7 11 30.06 1018 10 16 0.00 0.00
12:53 pm 12:53 Partly Cloudy 76 24.4 54 12.2 47 47 S 9 15 30.03 1017 10 16 0.00 0.00
1:53 pm 13:53 Mostly Sunny 76 24.4 53 11.7 45 45 S 10 17 30.02 1017 10 16 0.00 0.00
2:53 pm 14:53 Mostly Sunny 78 25.6 53 11.7 42 42 S 10 17 30.00 1016 10 16 0.00 0.00
3:53 pm 15:53 Sunny 75 23.9 53 11.7 46 46 S 10 17 29.98 1015 10 16 0.00 0.00
4:53 pm 16:53 Partly Cloudy 76 24.4 54 12.2 47 47 S 7 11 29.95 1014 10 16 0.00 0.00
5:53 pm 17:53 Cloudy 74 23.3 55 12.8 52 52 S 10 17 29.96 1015 10 16 0.00 0.00
6:53 pm 18:53 Partly Cloudy 72 22.2 52 11.1 50 50 S 13 20 29.97 1015 10 16 0.00 0.00
7:53 pm 19:53 Sunny 69 20.6 56 13.3 63 63 SSE 6 9 29.96 1015 10 16 0.00 0.00
8:53 pm 20:53 Cloudy with Light Rain 67 19.4 60 15.6 79 79 S 14 22 29.99 1016 10 16 0.00 0.03
9:53 pm 21:53 Cloudy with Rain 62 16.7 60 15.6 93 93 VRB 3 6 30.03 1017 4 6 0.12 3.05
10:53 pm 22:53 Cloudy with Light Rain 62 16.7 61 16.1 96 96 S 3 6 30.02 1017 8 13 0.07 1.78
11:53 pm 23:53 Cloudy 62 16.7 61 16.1 96 96 S 6 9 30.01 1016 10 16 0.00 0.03

Powered by AerisWeather